CW8468 Weather Reports


Display with metric or nautical units.
time (UTC)temp
F
wind
direction
speed
MPH
gust
MPH
rain 1hr
in
rain 24hr
in
rain mn
in
humidity
%
barometer
mb
20260901070025 81 171 0.0 0.0 0.00 0.00 0.00 80 1014.3
20260901065459 81 171 0.0 0.0 0.00 0.00 0.00 80 1014.4
20260901064959 81 171 0.0 0.0 0.00 0.00 0.00 80 1014.4
20260901064514 81 171 0.0 0.0 0.00 0.00 0.00 80 1014.5
20260901063959 81 171 0.0 0.0 0.00 0.00 0.00 80 1014.5
20260901063459 81 171 0.0 0.0 0.00 0.00 0.00 80 1014.5
20260901063022 81 171 0.0 0.0 0.00 0.00 0.00 79 1014.5
20260901062459 81 171 0.0 0.0 0.00 0.00 0.00 79 1014.5
20260901062000 81 171 0.0 0.0 0.00 0.00 0.00 79 1014.5
20260901061514 81 171 0.0 0.0 0.00 0.00 0.00 79 1014.6
20260901061000 82 171 0.0 0.0 0.00 0.00 0.00 79 1014.6
20260901060459 82 171 0.0 0.0 0.00 0.00 0.00 79 1014.6
20260901060026 82 171 0.0 0.0 0.00 0.00 0.00 78 1014.7
20260901055502 82 171 0.0 0.0 0.00 0.00 0.00 78 1014.7
20260901054517 82 171 0.0 0.0 0.00 0.00 0.00 77 1014.5
20260901053501 82 171 0.0 0.0 0.00 0.00 0.00 77 1014.5
20260901053025 82 171 0.0 0.0 0.00 0.00 0.00 76 1014.4
20260901051517 83 141 0.0 1.0 0.00 0.00 0.00 76 1014.4
20260901051002 83 150 0.0 2.0 0.00 0.00 0.00 75 1014.4
20260901050501 83 156 0.0 3.0 0.00 0.00 0.00 75 1014.4
20260901050030 83 143 1.0 3.0 0.00 0.00 0.00 75 1014.3
20260901045504 83 134 1.0 3.0 0.00 0.00 0.00 75 1014.3
20260901045004 83 123 1.0 2.0 0.00 0.00 0.00 74 1014.2
20260901044519 83 84 1.0 2.0 0.00 0.00 0.00 74 1014.2
20260901044004 84 171 1.0 3.0 0.00 0.00 0.00 74 1014.1
20260901043505 84 94 1.0 3.0 0.00 0.00 0.00 74 1014.1
20260901043029 84 151 1.0 3.0 0.00 0.00 0.00 73 1014.1
20260901042504 84 141 1.0 3.0 0.00 0.00 0.00 73 1014.2
20260901042005 84 161 2.0 4.0 0.00 0.00 0.00 73 1014.2
20260901041005 84 151 1.0 5.0 0.00 0.00 0.00 72 1014.2
20260901040504 84 191 1.0 4.0 0.00 0.00 0.00 72 1014.2
20260901040028 84 118 1.0 4.0 0.00 0.00 0.00 72 1014.2
20260901035503 84 131 1.0 4.0 0.00 0.00 0.00 72 1014.2
20260901035004 84 164 1.0 2.0 0.00 0.00 0.00 71 1014.1
20260901034518 84 135 0.0 2.0 0.00 0.00 0.00 71 1014.1
20260901034005 84 166 0.0 2.0 0.00 0.00 0.00 71 1014.0
20260901033027 84 152 1.0 3.0 0.00 0.00 0.00 71 1013.8
20260901032503 84 133 1.0 3.0 0.00 0.00 0.00 71 1013.8
20260901031518 84 94 0.0 1.0 0.00 0.00 0.00 71 1013.7
20260901031005 84 94 0.0 1.0 0.00 0.00 0.00 72 1013.6
20260901030503 84 94 0.0 1.0 0.00 0.00 0.00 71 1013.6
20260901030029 84 94 0.0 1.0 0.00 0.00 0.00 71 1013.5
20260901025003 85 94 0.0 1.0 0.00 0.00 0.00 70 1013.4
20260901024518 85 94 1.0 3.0 0.00 0.00 0.00 70 1013.3
20260901024006 85 94 1.0 5.0 0.00 0.00 0.00 69 1013.2
20260901023024 85 125 1.0 4.0 0.00 0.00 0.00 69 1013.1
20260901022503 85 127 0.0 2.0 0.00 0.00 0.00 69 1013.0
20260901021517 86 107 1.0 2.0 0.00 0.00 0.00 68 1012.9
20260901021004 86 159 1.0 3.0 0.00 0.00 0.00 68 1012.9
20260901020503 86 102 1.0 3.0 0.00 0.00 0.00 67 1012.9
20260901020025 87 353 1.0 3.0 0.00 0.00 0.00 67 1012.8
20260901015503 87 198 1.0 4.0 0.00 0.00 0.00 67 1012.7
20260901015004 87 353 1.0 4.0 0.00 0.00 0.00 67 1012.7
20260901014517 87 197 1.0 3.0 0.00 0.00 0.00 67 1012.7
20260901013503 87 121 1.0 3.0 0.00 0.00 0.00 67 1012.7
20260901013026 87 135 1.0 3.0 0.00 0.00 0.00 67 1012.7
20260901012005 87 353 1.0 2.0 0.00 0.00 0.00 67 1012.7
20260901011518 87 353 1.0 2.0 0.00 0.00 0.00 66 1012.7
20260901011004 88 163 1.0 3.0 0.00 0.00 0.00 66 1012.6
20260901010502 88 112 1.0 4.0 0.00 0.00 0.00 65 1012.6
20260901010023 88 131 1.0 3.0 0.00 0.01 0.00 65 1012.6
20260901005503 88 125 1.0 5.0 0.00 0.01 0.00 65 1012.5
20260901005002 88 183 1.0 5.0 0.00 0.01 0.00 65 1012.5
20260901004517 88 145 1.0 4.0 0.00 0.01 0.00 64 1012.6
20260901004002 89 109 1.0 4.0 0.00 0.01 0.00 64 1012.6
20260901003501 89 205 1.0 4.0 0.00 0.01 0.00 63 1012.6
20260901003024 89 135 2.0 5.0 0.00 0.01 0.00 63 1012.7
20260901002502 89 134 2.0 6.0 0.00 0.01 0.00 63 1012.7
20260901001517 89 112 2.0 4.0 0.00 0.01 0.00 62 1012.7
20260901001003 90 125 2.0 4.0 0.00 0.01 0.00 61 1012.6
20260901000502 90 353 2.0 5.0 0.00 0.01 0.00 61 1012.6
20260901000028 90 121 1.0 5.0 0.00 0.01 0.00 61 1012.7
20260831235503 90 77 2.0 3.0 0.00 0.01 0.00 61 1012.7
20260831235004 90 97 2.0 4.0 0.00 0.01 0.00 61 1012.7
20260831234518 90 198 2.0 4.0 0.00 0.01 0.00 60 1012.7
20260831233502 90 135 1.0 4.0 0.00 0.01 0.00 60 1012.8
20260831232503 90 116 2.0 6.0 0.00 0.01 0.00 59 1012.8
20260831232003 90 353 2.0 6.0 0.00 0.01 0.00 59 1012.7
20260831231518 90 129 2.0 6.0 0.00 0.01 0.00 59 1012.8
20260831231005 90 39 2.0 6.0 0.00 0.01 0.00 58 1012.7
20260831230502 90 125 3.0 8.0 0.00 0.01 0.00 57 1012.7
20260831230025 90 188 2.0 8.0 0.00 0.01 0.00 56 1012.7
20260831225002 90 119 1.0 5.0 0.00 0.01 0.00 55 1012.7
20260831224516 90 171 2.0 5.0 0.00 0.01 0.00 54 1012.7
20260831223502 90 160 3.0 7.0 0.00 0.01 0.00 55 1012.8
20260831223025 90 154 2.0 8.0 0.00 0.01 0.00 56 1012.9
20260831222502 90 150 3.0 8.0 0.00 0.01 0.00 55 1012.8
20260831222003 90 112 3.0 6.0 0.00 0.01 0.00 56 1012.9
20260831221516 90 157 2.0 6.0 0.00 0.01 0.00 56 1012.8
20260831220502 90 76 2.0 7.0 0.00 0.01 0.00 55 1012.9
20260831220027 90 139 3.0 7.0 0.00 0.01 0.00 55 1013.0
20260831215501 90 213 3.0 7.0 0.00 0.01 0.00 56 1013.0
20260831215001 90 156 3.0 7.0 0.00 0.01 0.00 56 1013.1
20260831214516 90 173 3.0 8.0 0.00 0.01 0.00 56 1013.2
20260831214001 90 353 2.0 8.0 0.00 0.01 0.00 59 1013.2
20260831213024 90 353 2.0 6.0 0.00 0.01 0.00 61 1013.3
20260831212501 90 353 2.0 6.0 0.00 0.01 0.00 62 1013.3
20260831212005 90 171 3.0 7.0 0.00 0.01 0.00 63 1013.3
20260831211517 90 167 3.0 8.0 0.00 0.01 0.00 62 1013.3
20260831210500 90 353 3.0 9.0 0.00 0.01 0.00 63 1013.5
20260831210024 90 123 3.0 9.0 0.00 0.01 0.00 63 1013.5
20260831205502 91 123 3.0 8.0 0.00 0.01 0.00 63 1013.5
20260831204516 91 164 3.0 9.0 0.00 0.01 0.00 63 1013.6
20260831204003 91 353 3.0 9.0 0.00 0.01 0.00 62 1013.6
20260831203502 92 166 4.0 14.0 0.00 0.01 0.00 61 1013.7
20260831203027 92 108 4.0 14.0 0.00 0.01 0.00 61 1013.8
20260831202002 95 127 2.0 10.0 0.00 0.01 0.00 55 1013.7
20260831201517 95 353 1.0 5.0 0.00 0.01 0.00 52 1013.7
20260831200501 95 60 2.0 5.0 0.00 0.01 0.00 52 1013.9
20260831195002 94 185 3.0 7.0 0.00 0.01 0.00 52 1014.0
20260831194515 94 202 3.0 6.0 0.00 0.01 0.00 52 1014.1
20260831194001 94 353 3.0 6.0 0.00 0.01 0.00 54 1014.2
20260831193021 94 187 2.0 7.0 0.00 0.01 0.00 56 1014.3
20260831192500 93 177 1.0 6.0 0.00 0.01 0.00 55 1014.3
20260831192001 94 67 1.0 4.0 0.00 0.01 0.00 54 1014.4
20260831191515 93 193 2.0 4.0 0.00 0.01 0.00 55 1014.5
20260831191001 94 127 1.0 4.0 0.00 0.01 0.00 56 1014.5
20260831190500 93 47 1.0 7.0 0.00 0.01 0.00 55 1014.6
20260831185501 93 245 3.0 6.0 0.00 0.01 0.00 56 1014.8
20260831185001 94 91 2.0 5.0 0.00 0.01 0.00 55 1014.8
20260831184516 94 79 1.0 4.0 0.00 0.01 0.00 55 1014.8
20260831183500 92 134 1.0 5.0 0.00 0.01 0.00 58 1014.9
20260831183024 92 41 1.0 4.0 0.00 0.01 0.00 57 1015.0
20260831182500 92 174 2.0 4.0 0.00 0.01 0.00 56 1015.0
20260831181515 93 89 2.0 6.0 0.00 0.01 0.00 57 1015.1
20260831181001 94 358 2.0 7.0 0.00 0.01 0.00 55 1015.2
20260831180500 94 120 1.0 6.0 0.00 0.01 0.00 57 1015.3
20260831180027 93 330 2.0 6.0 0.00 0.01 0.00 54 1015.4
20260831175500 95 123 2.0 6.0 0.00 0.01 0.00 55 1015.5
20260831175001 94 9 2.0 5.0 0.00 0.01 0.00 55 1015.5
20260831174515 92 85 2.0 5.0 0.00 0.01 0.00 57 1015.6
20260831174002 93 171 3.0 6.0 0.00 0.01 0.00 56 1015.6
20260831173500 93 87 2.0 6.0 0.00 0.01 0.00 56 1015.7
20260831173024 91 73 1.0 7.0 0.00 0.01 0.00 59 1015.7
20260831172001 92 98 3.0 9.0 0.00 0.01 0.00 56 1015.8
20260831171516 94 151 2.0 9.0 0.00 0.01 0.00 55 1015.8
20260831171002 92 32 1.0 3.0 0.00 0.01 0.00 59 1015.8
20260831170500 91 64 1.0 3.0 0.00 0.01 0.00 59 1015.8
20260831170027 90 110 2.0 4.0 0.00 0.01 0.00 58 1015.9
20260831165501 90 348 2.0 6.0 0.00 0.01 0.00 59 1015.9
20260831165002 91 152 2.0 6.0 0.00 0.01 0.00 58 1016.0
20260831164515 91 245 2.0 6.0 0.00 0.01 0.00 59 1015.9
20260831164002 90 185 2.0 4.0 0.00 0.01 0.00 59 1016.0
20260831163501 90 260 2.0 4.0 0.00 0.01 0.00 59 1016.0
20260831163027 90 164 2.0 5.0 0.00 0.01 0.00 58 1016.0
20260831162500 90 127 1.0 5.0 0.00 0.01 0.00 61 1016.0
20260831162002 89 149 2.0 6.0 0.00 0.01 0.00 60 1016.0
20260831161516 89 358 2.0 6.0 0.00 0.01 0.00 61 1016.1
20260831160500 89 25 2.0 6.0 0.00 0.01 0.00 61 1016.1
20260831155500 88 112 1.0 4.0 0.00 0.01 0.00 65 1016.1
20260831155002 88 198 2.0 4.0 0.00 0.01 0.00 62 1016.2
20260831154515 88 353 1.0 4.0 0.00 0.01 0.00 65 1016.2
20260831154001 87 246 1.0 3.0 0.00 0.01 0.00 61 1016.1
20260831153025 88 70 2.0 4.0 0.00 0.01 0.00 65 1016.1
20260831152500 87 62 1.0 3.0 0.00 0.01 0.00 63 1016.1
20260831151515 87 353 1.0 4.0 0.00 0.01 0.00 68 1016.1
20260831151000 86 343 2.0 5.0 0.00 0.01 0.00 68 1016.0
20260831150500 86 263 2.0 5.0 0.00 0.01 0.00 70 1016.0
20260831150024 85 297 1.0 4.0 0.00 0.01 0.00 72 1016.0
20260831145500 85 211 1.0 3.0 0.00 0.01 0.00 73 1015.9
20260831145002 85 231 1.0 3.0 0.00 0.01 0.00 73 1015.9
20260831144515 85 222 2.0 4.0 0.00 0.01 0.00 74 1015.9
20260831144000 85 308 2.0 4.0 0.00 0.01 0.00 74 1015.9
20260831143501 84 343 1.0 4.0 0.00 0.01 0.00 75 1015.9
20260831143024 84 284 1.0 3.0 0.00 0.01 0.00 77 1015.8
20260831142500 84 197 1.0 2.0 0.00 0.01 0.00 77 1015.8
20260831142001 83 258 1.0 2.0 0.00 0.01 0.00 78 1015.8
20260831141516 83 312 1.0 3.0 0.00 0.01 0.00 80 1015.8
20260831140500 82 83 0.0 2.0 0.00 0.01 0.00 82 1015.7
20260831140024 82 262 1.0 2.0 0.00 0.01 0.00 82 1015.6
20260831135459 82 222 1.0 2.0 0.00 0.01 0.00 83 1015.6
20260831134959 81 222 0.0 2.0 0.00 0.01 0.00 83 1015.6
20260831134514 81 35 0.0 1.0 0.00 0.01 0.00 84 1015.5
20260831133458 80 35 1.0 2.0 0.00 0.01 0.00 86 1015.4
20260831133026 80 270 0.0 2.0 0.00 0.01 0.00 86 1015.4
20260831132459 80 195 0.0 1.0 0.00 0.01 0.00 88 1015.4
20260831132000 79 195 0.0 2.0 0.00 0.01 0.00 89 1015.4
20260831131515 79 195 1.0 2.0 0.00 0.01 0.00 89 1015.3
20260831130459 78 195 0.0 1.0 0.00 0.01 0.00 90 1015.3
20260831125000 77 195 0.0 1.0 0.00 0.01 0.00 90 1015.2
20260831124515 77 195 0.0 1.0 0.00 0.01 0.00 90 1015.2
20260831124002 76 195 0.0 1.0 0.00 0.01 0.00 90 1015.0
20260831123501 76 195 0.0 1.0 0.00 0.01 0.00 90 1015.0
20260831123023 76 195 0.0 0.0 0.00 0.01 0.00 90 1014.9
20260831121002 76 195 0.0 0.0 0.00 0.01 0.00 90 1014.6
20260831120501 75 195 0.0 0.0 0.00 0.01 0.00 89 1014.4
20260831120023 76 195 0.0 0.0 0.00 0.01 0.00 89 1014.4
20260831115500 76 195 0.0 0.0 0.00 0.01 0.00 89 1014.3
20260831115001 76 195 0.0 0.0 0.00 0.01 0.00 89 1014.3
20260831114514 76 195 0.0 0.0 0.00 0.01 0.00 89 1014.3
20260831113459 76 195 0.0 0.0 0.00 0.01 0.00 89 1014.3
20260831113021 76 195 0.0 0.0 0.00 0.01 0.00 89 1014.3
20260831112459 76 195 0.0 0.0 0.00 0.01 0.00 89 1014.3
20260831112000 76 195 0.0 0.0 0.00 0.01 0.00 89 1014.3
20260831111514 76 195 0.0 0.0 0.00 0.01 0.00 89 1014.3
20260831111000 76 195 0.0 0.0 0.00 0.01 0.00 89 1014.3
20260831110500 76 195 0.0 0.0 0.00 0.01 0.00 89 1014.3
20260831105458 76 195 0.0 0.0 0.00 0.01 0.00 89 1014.2
20260831104959 77 195 0.0 0.0 0.00 0.01 0.00 89 1014.3
20260831104513 76 195 0.0 0.0 0.00 0.01 0.00 89 1014.4
20260831104000 76 195 0.0 0.0 0.00 0.01 0.00 88 1014.3
20260831103458 76 195 0.0 0.0 0.00 0.01 0.00 88 1014.3
20260831103023 77 195 0.0 0.0 0.00 0.01 0.00 88 1014.3
20260831102458 78 195 0.0 0.0 0.00 0.01 0.00 88 1014.3
20260831102000 78 195 0.0 0.0 0.00 0.01 0.00 88 1014.3
20260831101513 78 195 0.0 0.0 0.00 0.01 0.00 89 1014.3
20260831101000 77 195 0.0 0.0 0.00 0.01 0.00 88 1014.5
20260831100458 77 195 0.0 0.0 0.00 0.01 0.00 88 1014.5
20260831100025 77 195 0.0 0.0 0.00 0.01 0.00 87 1014.5
20260831095459 77 195 0.0 0.0 0.00 0.01 0.00 87 1014.4
20260831095001 77 195 0.0 0.0 0.00 0.01 0.00 87 1014.5
20260831094514 77 195 0.0 0.0 0.00 0.01 0.00 87 1014.3
20260831094001 77 195 0.0 0.0 0.00 0.01 0.00 87 1014.4
20260831093459 77 195 0.0 0.0 0.00 0.01 0.00 87 1014.3
20260831093025 77 195 0.0 1.0 0.00 0.01 0.00 87 1014.2
20260831092459 78 195 0.0 1.0 0.00 0.01 0.00 87 1014.2
20260831092001 78 195 0.0 0.0 0.00 0.01 0.00 87 1014.2
20260831091514 78 195 0.0 0.0 0.00 0.01 0.00 87 1014.2
20260831091001 78 195 0.0 0.0 0.00 0.01 0.00 87 1014.2
20260831090459 78 195 0.0 0.0 0.00 0.01 0.00 87 1014.2
20260831090023 78 195 0.0 1.0 0.00 0.01 0.00 86 1014.3
20260831085459 78 195 0.0 1.0 0.00 0.01 0.00 86 1014.4
20260831084959 78 195 0.0 1.0 0.00 0.01 0.00 86 1014.4
20260831084513 78 195 0.0 1.0 0.00 0.01 0.00 86 1014.4
20260831083959 78 195 0.0 0.0 0.00 0.01 0.00 86 1014.4
20260831083458 78 195 0.0 0.0 0.00 0.01 0.00 86 1014.3
20260831083018 78 195 0.0 0.0 0.00 0.01 0.00 85 1014.4
20260831082458 78 195 0.0 0.0 0.00 0.01 0.00 85 1014.3
20260831081959 78 195 0.0 1.0 0.00 0.01 0.00 85 1014.4
20260831081514 78 195 0.0 1.0 0.00 0.01 0.00 85 1014.3
20260831080458 79 195 0.0 1.0 0.00 0.01 0.00 84 1014.4
20260831080022 79 195 0.0 1.0 0.00 0.01 0.00 84 1014.4
20260831075458 79 195 0.0 1.0 0.00 0.01 0.00 84 1014.4
20260831074959 79 195 0.0 1.0 0.00 0.01 0.00 84 1014.4
20260831074513 79 195 0.0 2.0 0.00 0.01 0.00 84 1014.5
20260831074000 79 195 0.0 0.0 0.00 0.01 0.00 83 1014.5
20260831073022 80 195 0.0 2.0 0.00 0.01 0.00 83 1014.4
20260831072458 80 195 0.0 2.0 0.00 0.01 0.00 83 1014.5
20260831071959 80 178 0.0 2.0 0.00 0.01 0.00 83 1014.5
20260831071513 80 194 0.0 2.0 0.00 0.01 0.00 82 1014.5
20260831070959 80 213 0.0 2.0 0.00 0.01 0.00 82 1014.5
20260831070457 80 208 0.0 1.0 0.00 0.01 0.00 82 1014.5